星链-31170 (STARLINK-31170 )

导读

STARLINK-31170是美国SpaceX公司星链星座中的低轨通信卫星,于2024年1月15日发射入轨,属于星链大规模组网的一部分。它采用平板设计搭载Ku/Ka波段通信载荷与氪工质霍尔推进器,具备自主避撞能力,运行在低轨轨道为全球提供宽带互联网服务,寿命末期将主动离轨在大气层烧毁,减少空间碎片影响。

Basic Information
目录编号:
58801
目录名称:
STARLINK-31170
国际标识:
2024-012Q
轨道中心:
EARTH
卫星名称:
星链-31170
卫星全名:
星链-31170 (STARLINK-31170 )
卫星状态:
在轨 (已飞行963 天)
发射日期:
2024-01-15 UTC
国别 :
美国 (US)
星等 :
--
Orbit Information
数据来源 国际轨道数据 AOE轨道数据
星历时间 2026-09-04T09:16:15+0800
8小时前
查看轨道信息
2026-08-30T07:00:00+0800
5天前
查看轨道信息
半长轴 6861.193km 6861.148km
偏心率 0.0001289 0.0002025
轨道倾角 43.001° 43.002°
近地点辐角 269.814° 249.970°
升交点赤经 238.002° 266.772°
平近点角 90.257° 140.565°
近地点 482.171km 481.621km
远地点 483.941km 484.401km
周期 94.267分钟 94.266分钟
每日圈数 15.275778 15.275928
Detailed Information
固有亮度:
5
最大亮度:
0.3
卫星平台:
Starlink v2.0 mini
覆盖范围:
全球
运营商:
太空探索技术公司
运营商所在国:
美国
制造商(研发单位):
太空探索技术公司
制造商所在国:
美国
使用方式:
暂无
Satellite Introduction
星链(Starlink)计划是由太空探索技术公司(SpaceX)提出的一个巨型低轨卫星互联网星座项目,计划在2019年至2024年间在太空搭建由约1.2万颗卫星组成的“星链”网络,其中1584颗将部署在地球上空550千米处的近地轨道,并从2020年开始工作。该卫星仍在工作。
2D Orbit Map
3D Orbit Map
Orbit Altitude Analysis Chart
Orbit Inclination Analysis Chart
Orbit Comprehensive Analysis Chart
View Comprehensive Chart
Conjunction Data List
Event ID Objects TCA Miss Dist (km) Collision Risk Probability Collision Risk Index (CRI) Action
CDM_260904-061104-943305-880121
2026-09-04T
06:11:51+0000
1.384 km
极远距离
6.417164E-6 低风险 0.51
CDM_260904-035004-943305-880121
2026-09-04T
03:50:35+0000
2.538 km
极远距离
1.308663E-6 低风险 0.37
CDM_260904-202805-880106-726921
OBJECT X (67269)
2026-09-04T
20:28:01+0000
2.802 km
极远距离
1.245259E-6 低风险 0.37